Date_and_time,latitude,longitude,wind_speed,RelWindDirFrom,WindDirFrom,air_pressure,air_temperature,relative_humidity,Temp,platform_speed_wrt_ground,air_pressure_at_mean_sea_level,platform_orientation
2019-09-24 00:00,52.640075,-98.3563483333333,21.0,23.2,140,971.88,19.5,70,16.44,11.0,997.17,93.7
2019-09-24 00:10,52.6366816666667,-98.3249933333333,19.8,25.1,163,971.81,19.6,69,16.39,7.0,997.08,93.7
2019-09-24 00:20,52.6371083333333,-98.3251416666667,18.7,21.5,195,971.71,19.9,66,16.41,0.2,996.98,93.7
2019-09-24 00:30,52.6371,-98.3249216666667,19.8,22.1,200,971.68,20.1,65,16.40,0.0,996.93,93.7
2019-09-24 00:40,52.6372133333333,-98.324835,18.7,21.8,207,971.99,19.8,68,16.39,0.0,997.25,93.7
2019-09-24 00:50,52.6372083333333,-98.3246616666667,21.2,26.0,228,972.01,20.2,64,16.38,0.0,997.26,93.7
2019-09-24 01:00,52.6370266666667,-98.3243483333333,21.1,28.8,245,972.42,20.5,63,16.37,0.1,997.75,91.3
2019-09-24 01:10,52.637075,-98.3244016666667,17.6,23.0,250,972.68,20.6,60,16.36,0.0,998.08,91.3
2019-09-24 01:20,52.6370516666667,-98.324375,14.8,16.8,244,972.91,19.8,65,16.36,0.0,998.37,91.3
2019-09-24 01:30,52.63713,-98.3245883333333,13.2,14.9,243,972.73,19.6,63,16.36,0.1,998.22,91.3
2019-09-24 01:40,52.63716,-98.32463,13.1,15.7,237,972.61,19.3,66,16.35,0.0,998.14,91.3
2019-09-24 01:50,52.6371716666667,-98.3246716666667,14.3,16.1,228,972.48,19.1,66,16.35,0.0,998.08,91.3
2019-09-24 02:00,52.6371866666667,-98.3246933333333,16.1,18.8,228,972.43,19.0,66,16.35,0.0,998.03,93.6
2019-09-24 02:10,52.6371733333333,-98.3246516666667,14.9,16.6,227,972.52,18.7,69,16.35,0.0,998.12,93.6
2019-09-24 02:20,52.6371283333333,-98.3245266666667,16.3,18.8,228,972.56,18.6,70,16.35,0.0,998.16,93.6
2019-09-24 02:30,52.6371016666667,-98.32448,15.8,18.6,234,972.71,18.9,67,16.35,0.0,998.31,93.6
2019-09-24 02:40,52.6371483333333,-98.324615,11.7,14.2,232,973.11,18.3,78,16.35,0.0,998.73,93.6
2019-09-24 02:50,52.6370833333333,-98.3244116666667,11.7,15.7,246,973.23,18.0,78,16.35,0.1,998.85,93.6
2019-09-24 03:00,52.6369233333333,-98.3242766666667,12.0,14.8,271,973.35,18.5,69,16.35,0.1,998.95,99.2
2019-09-24 03:10,52.636555,-98.32413,16.3,24.3,285,973.31,18.9,64,16.35,0.1,998.92,99.2
2019-09-24 03:20,52.6366083333333,-98.3241016666667,16.2,18.4,285,973.29,19.2,60,16.34,0.0,998.90,99.2
2019-09-24 03:30,52.6365883333333,-98.3240983333333,16.4,19.2,285,973.36,19.1,59,16.34,0.0,998.99,99.2
2019-09-24 03:40,52.6365116666667,-98.324145,15.6,18.3,288,973.56,19.0,59,16.34,0.0,999.20,99.2
2019-09-24 03:50,52.6365433333333,-98.3241633333333,14.8,17.6,288,973.69,18.9,59,16.34,0.0,999.35,99.2
2019-09-24 04:00,52.6365166666667,-98.3241733333333,12.1,16.3,284,973.74,18.7,61,16.34,0.0,999.43,171.5
2019-09-24 04:10,52.636535,-98.324125,12.4,15.7,280,973.70,18.5,62,16.34,0.0,999.40,171.5
2019-09-24 04:20,52.6365366666667,-98.32411,14.6,17.8,279,973.58,18.3,61,16.34,0.0,999.27,171.5
2019-09-24 04:30,52.6365666666667,-98.324125,15.0,17.3,282,973.51,18.2,58,16.34,0.0,999.23,171.5
2019-09-24 04:40,52.6364866666667,-98.3241516666667,14.2,16.5,285,973.58,17.9,58,16.34,0.0,999.32,171.5
2019-09-24 04:50,52.6364916666667,-98.3241683333333,13.3,15.2,291,973.54,17.8,59,16.33,0.0,999.27,171.5
2019-09-24 05:00,52.6364533333333,-98.324195,12.0,13.9,297,973.47,17.6,60,16.34,0.0,999.19,158.7
2019-09-24 05:10,52.6364366666667,-98.3242283333333,10.1,12.1,308,973.56,17.5,63,16.33,0.0,999.27,158.7
2019-09-24 05:20,52.6364483333333,-98.3242066666667,7.9,10.1,304,973.58,17.3,66,16.33,0.0,999.30,158.7
2019-09-24 05:30,52.6365366666667,-98.3241516666667,6.8,7.8,283,973.59,17.1,69,16.33,0.0,999.33,158.7
2019-09-24 05:40,52.6366283333333,-98.3241566666667,6.8,7.4,262,973.62,16.9,71,16.33,0.0,999.37,158.7
2019-09-24 05:50,52.6365833333333,-98.3241566666667,6.9,7.9,255,973.66,16.8,69,16.33,0.0,999.43,158.7
2019-09-24 06:00,52.63663,-98.3241333333333,7.1,8.5,253,973.64,16.8,67,16.32,0.0,999.42,162.1
2019-09-24 06:10,52.6366133333333,-98.3241566666667,7.8,8.8,250,973.65,16.8,67,16.32,0.0,999.43,162.1
2019-09-24 06:20,52.636675,-98.3241716666667,8.1,8.9,242,973.57,16.7,65,16.32,0.0,999.36,162.1
2019-09-24 06:30,52.6367116666667,-98.3241766666667,8.4,10.3,235,973.51,16.6,64,16.32,0.0,999.32,162.1
2019-09-24 06:40,52.6367816666667,-98.3242216666667,10.3,12.0,234,973.39,16.6,60,16.32,0.0,999.20,162.1
2019-09-24 06:50,52.6368116666667,-98.3241816666667,12.0,14.0,238,973.33,16.7,55,16.32,0.0,999.14,162.1
2019-09-24 07:00,52.63677,-98.324145,12.0,14.2,246,973.36,16.7,54,16.31,0.0,999.18,2.9
2019-09-24 07:10,52.6366933333333,-98.324115,13.2,15.6,261,973.32,16.7,53,16.31,0.0,999.14,2.9
2019-09-24 07:20,52.6366666666667,-98.324095,12.2,14.8,266,973.28,16.6,53,16.31,0.0,999.11,2.9
2019-09-24 07:30,52.6366483333333,-98.324115,12.4,15.2,265,973.31,16.5,54,16.31,0.0,999.17,2.9
2019-09-24 07:40,52.6365833333333,-98.3241066666667,13.8,16.0,266,973.11,16.5,53,16.31,0.0,998.96,2.9
2019-09-24 07:50,52.636545,-98.3240966666667,14.1,16.1,270,972.97,16.4,52,16.31,0.0,998.82,2.9
2019-09-24 08:00,52.63662,-98.324085,13.8,16.2,266,973.12,16.2,54,16.30,0.0,998.99,17.8
2019-09-24 08:10,52.6366933333333,-98.3241,12.9,15.1,262,973.15,16.1,55,16.31,0.0,999.02,17.8
2019-09-24 08:20,52.6367033333333,-98.324115,13.2,15.8,263,973.11,15.9,56,16.31,0.0,999.00,17.8
2019-09-24 08:30,52.6366883333333,-98.324135,14.3,16.7,263,973.17,15.8,55,16.30,0.0,999.06,17.8
2019-09-24 08:40,52.63664,-98.32413,14.1,17.0,264,973.15,15.6,56,16.30,0.0,999.05,17.8
2019-09-24 08:50,52.636575,-98.3241316666667,13.8,17.4,268,973.07,15.7,54,16.30,0.0,998.96,17.8
2019-09-24 09:00,52.636575,-98.3241033333333,12.7,15.7,266,972.88,15.8,52,16.30,0.0,998.77,360.0
2019-09-24 09:10,52.63661,-98.324095,11.7,14.9,269,972.77,15.7,52,16.30,0.0,998.66,360.0
2019-09-24 09:20,52.6366066666667,-98.324105,15.0,17.5,269,972.94,15.7,54,16.30,0.0,998.83,360.0
2019-09-24 09:30,52.6366033333333,-98.3240833333333,15.9,18.6,267,973.01,15.5,56,16.30,0.0,998.91,360.0
2019-09-24 09:40,52.636585,-98.3240916666667,15.4,18.0,266,972.93,15.4,55,16.30,0.0,998.85,360.0
2019-09-24 09:50,52.6365466666667,-98.3241083333333,15.0,18.1,267,972.90,15.3,56,16.30,0.0,998.83,360.0
2019-09-24 10:00,52.6364883333333,-98.324115,15.7,18.4,272,972.82,15.3,54,16.29,0.0,998.75,174.3
2019-09-24 10:10,52.63653,-98.3241483333333,15.4,17.4,274,972.85,15.3,55,16.29,0.0,998.79,174.3
2019-09-24 10:20,52.63654,-98.324125,15.8,17.9,278,972.78,15.2,55,16.29,0.0,998.73,174.3
2019-09-24 10:30,52.63656,-98.32409,15.0,17.6,278,972.80,15.1,56,16.29,0.0,998.76,174.3
2019-09-24 10:40,52.6365666666667,-98.32411,14.5,17.0,278,972.82,15.0,55,16.29,0.0,998.78,174.3
2019-09-24 10:50,52.6365233333333,-98.3241333333333,12.7,15.5,277,972.84,15.0,57,16.30,0.0,998.80,174.3
2019-09-24 11:00,52.6365366666667,-98.3241433333333,12.9,16.0,277,972.77,15.0,58,16.30,0.0,998.73,202.8
2019-09-24 11:10,52.6365116666667,-98.3241416666667,12.9,16.0,275,972.75,15.0,59,16.30,0.0,998.71,202.8
2019-09-24 11:20,52.6365466666667,-98.3241366666667,14.6,18.8,275,972.68,15.0,56,16.30,0.0,998.64,202.8
2019-09-24 11:30,52.6366633333333,-98.3240966666667,15.2,18.0,267,972.73,14.9,57,16.29,0.0,998.71,202.8
2019-09-24 11:40,52.6366316666667,-98.3240766666667,15.4,18.0,267,972.73,14.8,55,16.29,0.0,998.71,202.8
2019-09-24 11:50,52.63654,-98.3248416666667,14.5,17.7,266,972.76,14.8,57,16.28,0.2,998.75,202.8
2019-09-24 12:00,52.6327483333333,-98.3114283333333,11.4,16.9,255,972.98,16.0,54,16.28,3.2,998.92,116.4
2019-09-24 12:10,52.6298133333333,-98.2993266666667,11.9,14.1,255,972.91,17.9,50,16.27,2.8,998.77,116.4
2019-09-24 12:20,52.62577,-98.2882666666667,13.0,16.1,257,972.85,17.2,52,16.28,2.8,998.74,116.4
2019-09-24 12:30,52.623185,-98.2757433333333,13.6,15.9,253,972.90,17.8,49,16.29,2.9,998.77,116.4
2019-09-24 12:40,52.61721,-98.2491233333333,9.7,14.6,248,972.74,16.6,53,16.28,6.2,998.67,116.4
2019-09-24 12:50,52.606375,-98.201605,7.4,11.0,224,972.93,15.5,57,16.27,11.1,998.90,116.4
2019-09-24 13:00,52.598215,-98.1541866666667,6.6,9.9,227,973.05,15.5,57,16.30,10.8,999.03,110.3
2019-09-24 13:10,52.5974433333333,-98.146395,13.5,18.9,262,972.72,17.0,50,16.33,1.7,998.61,110.3
2019-09-24 13:20,52.5971416666667,-98.1457983333333,14.2,16.3,254,972.60,14.8,61,16.35,0.2,998.60,110.3
2019-09-24 13:30,52.59712,-98.1458166666667,14.3,16.4,250,972.42,14.7,59,16.35,0.0,998.43,110.3
2019-09-24 13:40,52.597155,-98.1458266666667,14.3,16.9,253,972.45,14.6,59,16.36,0.0,998.46,110.3
2019-09-24 13:50,52.597215,-98.1457933333333,15.2,17.1,254,972.49,14.6,57,16.35,0.0,998.44,110.3
2019-09-24 14:00,52.5972033333333,-98.145895,15.4,18.0,256,972.46,14.8,57,16.35,0.0,998.32,109.9
2019-09-24 14:10,52.5971816666667,-98.1460566666667,15.5,17.9,256,972.69,14.6,59,16.35,0.0,998.60,109.9
2019-09-24 14:20,52.6021616666667,-98.1050666666667,6.9,18.5,238,972.95,16.4,53,16.35,9.1,998.75,109.9
2019-09-24 14:30,52.6070566666667,-98.0549666666667,5.3,9.8,239,972.95,16.8,54,16.34,11.1,998.79,109.9
2019-09-24 14:40,52.6120583333333,-98.0048316666667,5.3,8.7,246,972.95,16.6,55,16.30,11.1,998.85,109.9
2019-09-24 14:50,52.6176833333333,-97.955065,5.3,8.7,249,972.88,15.6,57,16.31,11.1,998.82,109.9
2019-09-24 15:00,52.6228866666667,-97.9049016666667,6.2,9.3,244,972.77,16.9,51,16.32,11.1,998.58,92.1
2019-09-24 15:10,52.628385,-97.854665,4.3,7.8,251,972.72,16.4,57,16.33,11.2,998.65,92.1
2019-09-24 15:20,52.633455,-97.8045283333333,5.4,8.3,252,972.64,16.5,54,16.31,11.1,998.58,92.1
2019-09-24 15:30,52.6393533333333,-97.7545183333333,5.0,8.1,266,972.60,15.8,57,16.26,11.1,998.56,92.1
2019-09-24 15:40,52.6412766666667,-97.7326966666667,11.9,19.2,259,972.35,16.9,53,16.22,4.8,998.26,92.1
2019-09-24 15:50,52.6413183333333,-97.7326633333333,17.6,20.9,265,971.81,15.2,58,16.21,0.0,997.78,92.1
2019-09-24 16:00,52.6411766666667,-97.7325583333333,17.4,21.3,268,971.74,15.2,56,16.21,0.1,997.71,80.3
2019-09-24 16:10,52.64118,-97.7325433333333,17.2,20.1,268,971.72,15.3,55,16.20,0.0,997.60,80.3
2019-09-24 16:20,52.6387883333333,-97.731605,18.2,22.6,270,971.83,15.4,55,16.20,0.9,997.70,80.3
2019-09-24 16:30,52.6320533333333,-97.7287016666667,18.6,21.1,274,972.04,15.6,56,16.21,2.5,997.91,80.3
2019-09-24 16:40,52.6256533333333,-97.7280716666667,19.4,22.4,274,971.98,15.7,54,16.23,2.3,997.89,80.3
2019-09-24 16:50,52.619275,-97.7270633333333,20.0,23.7,274,971.99,15.7,54,16.24,2.3,997.84,80.3
2019-09-24 17:00,52.5982416666667,-97.7217433333333,20.0,26.5,266,971.91,15.7,54,16.22,7.7,997.78,89.6
2019-09-24 17:10,52.5680233333333,-97.7145033333333,20.8,25.1,259,971.84,15.7,54,16.22,11.0,997.70,89.6
2019-09-24 17:20,52.5379,-97.70664,20.1,24.8,255,971.79,15.7,53,16.25,11.0,997.69,89.6
2019-09-24 17:30,52.5080166666667,-97.6977733333333,18.7,23.3,249,971.86,16.0,53,16.27,10.9,997.69,89.6
2019-09-24 17:40,52.4780816666667,-97.690695,21.5,24.6,241,971.68,16.0,54,16.27,10.9,997.59,89.6
2019-09-24 17:50,52.4481766666667,-97.6834216666667,23.2,28.4,243,971.50,15.6,55,16.25,10.9,997.42,89.6
2019-09-24 18:00,52.4184966666667,-97.674585,25.2,28.7,249,971.40,15.5,56,16.22,10.9,997.32,145.5
2019-09-24 18:10,52.3888016666667,-97.6669933333333,26.3,30.2,250,971.37,15.2,57,16.21,10.8,997.30,145.5
2019-09-24 18:20,52.359035,-97.6603983333333,27.6,32.6,253,971.35,14.8,60,16.19,10.8,997.29,145.5
2019-09-24 18:30,52.3293983333333,-97.6521116666667,27.5,31.0,256,971.37,14.8,62,16.16,10.8,997.31,145.5
2019-09-24 18:40,52.2999783333333,-97.6435033333333,28.5,33.2,253,971.28,14.6,64,16.13,10.8,997.22,145.5
2019-09-24 18:50,52.2704933333333,-97.6352483333333,28.6,34.7,253,971.28,14.3,67,16.13,10.8,997.23,145.5
2019-09-24 19:00,52.2434716666667,-97.629355,29.3,35.1,253,971.22,14.4,66,16.19,9.8,997.16,171.0
2019-09-24 19:10,52.2421683333333,-97.6293116666667,23.9,30.1,251,971.16,14.1,66,16.20,0.5,997.11,171.0
2019-09-24 19:20,52.24216,-97.6291933333333,22.7,27.0,252,971.13,14.0,66,16.22,0.0,997.08,171.0
2019-09-24 19:30,52.2422766666667,-97.6289416666667,23.5,28.8,247,970.91,14.1,65,16.22,0.1,996.85,171.0
2019-09-24 19:40,52.23956,-97.6226816666667,22.9,26.2,242,971.17,14.1,66,16.23,1.7,997.14,171.0
2019-09-24 19:50,52.2360383333333,-97.6127416666667,21.2,24.9,234,971.56,14.1,66,16.23,2.5,997.54,171.0
2019-09-24 20:00,52.2316483333333,-97.6047533333333,21.2,25.0,235,971.46,14.1,66,16.23,2.4,997.45,168.9
2019-09-24 20:10,52.227295,-97.5980716666667,21.0,25.2,233,971.38,14.4,65,16.25,2.2,997.37,168.9
2019-09-24 20:20,52.2108283333333,-97.5854316666667,23.3,30.3,232,971.09,14.5,63,16.24,6.6,997.07,168.9
2019-09-24 20:30,52.1827783333333,-97.5685316666667,27.2,31.5,223,970.77,14.2,65,16.23,10.8,996.76,168.9
2019-09-24 20:40,52.1548766666667,-97.5506116666667,25.0,32.2,226,970.93,14.3,64,16.24,10.8,996.94,168.9
2019-09-24 20:50,52.1388233333333,-97.5408666666667,16.7,25.5,223,971.29,14.5,60,16.21,6.2,997.29,168.9
2019-09-24 21:00,52.13905,-97.5407133333333,13.0,18.3,226,971.48,14.5,58,16.16,0.1,997.50,163.6
2019-09-24 21:10,52.1390366666667,-97.5400533333333,13.5,18.5,232,971.40,14.8,60,16.16,0.1,997.41,163.6
2019-09-24 21:20,52.1391083333333,-97.5401233333333,13.0,17.7,236,971.19,14.8,62,16.16,0.0,997.19,163.6
2019-09-24 21:30,52.1390966666667,-97.54012,14.1,18.2,233,971.10,14.6,61,16.15,0.0,997.10,163.6
2019-09-24 21:40,52.13913,-97.5401816666667,12.0,17.2,225,971.15,14.7,62,16.15,0.0,997.16,163.6
2019-09-24 21:50,52.1391083333333,-97.540125,11.9,15.8,227,971.06,14.8,62,16.14,0.0,997.05,163.6
2019-09-24 22:00,52.1390783333333,-97.5401016666667,11.4,14.8,228,970.98,15.1,60,16.12,0.0,996.95,152.3
2019-09-24 22:10,52.139035,-97.5400566666667,11.5,17.4,237,970.97,15.1,61,16.11,0.0,996.93,152.3
2019-09-24 22:20,52.1391233333333,-97.5401333333333,11.2,15.0,235,970.98,15.0,61,16.11,0.0,996.96,152.3
2019-09-24 22:30,52.1388133333333,-97.5404966666667,10.0,17.8,245,971.14,15.0,62,16.11,0.1,997.12,152.3
2019-09-24 22:40,52.1459866666667,-97.5054466666667,17.9,29.5,299,971.55,13.4,72,16.10,8.2,997.61,152.3
2019-09-24 22:50,52.13061,-97.4716216666667,10.5,22.3,272,971.89,13.9,69,16.15,9.3,997.93,152.3
2019-09-24 23:00,52.1214583333333,-97.4872533333333,13.7,22.5,289,971.47,12.5,72,16.15,4.8,997.55,146.8
2019-09-24 23:10,52.1288366666667,-97.4907116666667,6.1,10.4,261,971.44,12.2,72,16.22,2.8,997.54,146.8
2019-09-24 23:20,52.1287866666667,-97.49069,6.4,7.8,216,971.41,14.0,70,16.25,0.0,997.43,146.8
2019-09-24 23:30,52.12879,-97.4906916666667,7.6,9.3,211,971.33,14.1,70,16.25,0.0,997.34,146.8
2019-09-24 23:40,52.1287933333333,-97.4906916666667,6.9,8.1,215,971.33,14.5,69,16.27,0.0,997.31,146.8
